Weather in Novobila

Ukraine / Luhansk Region     49°46′07″N   39°11′17″E
temp.,
°C
wind,
m/s
gust,
m/s
humid.,
%
clouds,
%
prec.,
mm/h
press.,
hPa
HPBL,
m
22 april, thu
thu2200:00+7s337728 0.0 101830
03:00+7ssw338010 0.0 101943
06:00+6sw23845 0.0 102056
09:00+12sw34655 0.0 1021584
12:00+16wsw454754 0.1 10212002
15:00+15sw2354100 0.1 1021255
18:00+15s1256100 0.0 102136
21:00+11s226628 0.0 102216
23 april, fri
fri2300:00+10sse226892 0.0 102118
03:00+10s226998 0.0 102114
06:00+9s227597 0.1 102124
09:00+13ssw346374 0.1 1021432
12:00+17sw564710 0.6 10192084
15:00+17sw5643100 0.6 10182158
18:00+15s475998 0.0 1017242
21:00+11s496795 0.0 1016152
24 april, sat
sat2400:00+10ssw31072100 0.0 1015260
03:00+9sw51176100 0.0 1014493
06:00+9s4108190 0.1 1013384
09:00+6wnw6888100 0.9 1013486
12:00+9w586898 0.1 10141232
15:00+12w6114686 0.7 10132271
18:00+10wsw8105493 0.3 10141023
21:00+6w6107895 0.3 1016609
25 april, sun
sun2500:00+4wsw5107851 0.2 1017718
03:00+2wsw5109050 0.2 1018448
06:00+4w597472 0.0 1019712
09:00+7w68555 0.0 10191195
12:00+10w6840100 0.0 10202526
15:00+12w573597 0.0 10192511
18:00+11wsw454232 0.0 10191161
21:00+7ssw225429 0.0 101919
26 april, mon
mon2600:00+5ssw225730 0.0 101921
03:00+4s3360100 0.0 101828
06:00+4sw356575 0.0 1018119
09:00+9sw2358100 0.0 1017575
12:00+13ssw584295 0.0 10152142
15:00+11wsw101265100 0.3 10141534
18:00+5wnw798552 0.4 1015703
21:00+4wsw36885 0.4 1016148